Content
SEND FEEDBACK

Turkmenistan Flag

ASHGABAT, TURKMENISTAN


Home > Asia > Turkmenistan
Elevation: 775 feet     Latitude: 37 58N     Longitude: 058 20E

WEATHER
 
SELECT A DAY
Number of Records: 200,906;   Date Range: 3/15/97 - 3/22/16
 
SHARE

PRINT THIS DATA

[ ← Previous Day ]
WEATHER ALMANAC - JANUARY 22, 2014
[ Next Day → ]
[ °C ]   °F
Weather ElementAverageHighLow
Temperature37.1 °F41 °F (6:00 pm) (11:00 am)
Dewpoint34.4 °F37.4 °F (1:00 am) (7:00 pm)
Humidity89.5 %100 % (4:30 am)65 % (8:00 pm)
Barometer30.20 in30.28 in (2:00 am)30.12 in (10:00 pm)
Wind Speed5.3 mph8.9 mph (6:00 am)
Weather ElementAverage
Visibility3.2 mi
Wind DirectionESE (101.6 °)

Weather ElementTotal
Precipitation---
Heating Degree Days44.5 (Base 65)
Averaged from 43 records on January 22, 2014
WEATHER CONDITIONS BREAKOUT
WIND DIRECTION BREAKOUT
WEATHER BY HOUR - JANUARY 22, 2014
[ °C ]   °F
Local TimeTemperatureDewpointHumidityBarometerVisibilityWind DirectionWind SpeedGust SpeedPrecipitationEventsConditions
1:00 AM39.2 °F37.4 °F93 %30.24 in6.2 miNW (320°)4.5 mphOvercast
2:00 AM40.0 °F37.0 °F86 %30.28 in6.0 miNW (320°)4.5 mphOvercast
2:00 AM39.2 °F37.4 °F93 %30.24 in6.2 miNNW (330°)4.5 mphOvercast
2:30 AM39.2 °F37.4 °F93 %30.21 in2.2 miNNW (340°)2.2 mphOvercast
3:00 AM39.2 °F37.4 °F93 %30.24 in0.7 miNW (320°)2.2 mphLight Drizzle
3:30 AM39.2 °F37.4 °F93 %30.21 in0.7 miCalmLight Drizzle
4:00 AM39.2 °F37.4 °F93 %30.21 in0.7 miNE (40°)6.7 mphLight Drizzle
4:30 AM37.4 °F37.4 °F100 %30.21 in0.5 miNE (40°)6.7 mphFogLight Drizzle
5:00 AM38.0 °F36.0 °F90 %30.27 in0.0 miENE (60°)6.7 mphRainLight Drizzle
5:00 AM37.4 °F35.6 °F93 %30.21 in0.4 miNE (50°)6.7 mphFogLight Drizzle
5:30 AM37.4 °F35.6 °F93 %30.21 in0.7 miENE (60°)6.7 mphLight Drizzle
6:00 AM35.6 °F35.6 °F100 %30.21 in0.3 miENE (60°)8.9 mphFogLight Drizzle
6:30 AM35.6 °F35.6 °F100 %30.21 in0.2 miENE (60°)6.7 mphFogLight Drizzle
7:00 AM35.6 °F35.6 °F100 %30.21 in0.3 miENE (60°)4.5 mphFogLight Drizzle
7:30 AM35.6 °F35.6 °F100 %30.21 in0.2 miENE (70°)4.5 mphFogLight Drizzle
8:00 AM35.6 °F35.6 °F100 %30.21 in0.2 miEast (80°)4.5 mphFogLight Drizzle
8:00 AM36.0 °F34.0 °F90 %30.27 in0.0 miEast (80°)4.5 mphRainLight Drizzle
8:30 AM35.6 °F35.6 °F100 %30.24 in0.2 miVariable2.2 mphFogLight Drizzle
9:00 AM35.6 °F35.6 °F100 %30.24 in0.3 miENE (60°)4.5 mphFogLight Drizzle
9:30 AM35.6 °F35.6 °F100 %30.24 in0.5 miENE (60°)4.5 mphFogLight Drizzle
10:00 AM35.6 °F35.6 °F100 %30.21 inEast (90°)6.7 mphFogLight Drizzle
10:30 AM35.6 °F35.6 °F100 %30.21 in0.4 miEast (90°)8.9 mphFogLight Drizzle
11:00 AM0.0 °F0.0 °F30.28 in0.0 miEast (100°)6.7 mphRainLight Drizzle
11:00 AM35.6 °F35.6 °F100 %30.24 inEast (100°)6.7 mphFogLight Drizzle
11:30 AM35.6 °F35.6 °F100 %30.21 inEast (100°)4.5 mphLight Drizzle
12:00 PM37.4 °F35.6 °F93 %30.21 inNNE (30°)2.2 mphOvercast
12:30 PM37.4 °F35.6 °F93 %30.21 in3.7 miEast (90°)4.5 mphOvercast
1:00 PM37.4 °F35.6 °F93 %30.18 in4.3 miESE (110°)4.5 mphOvercast
1:30 PM39.2 °F35.6 °F87 %30.18 in5.0 miEast (90°)4.5 mphOvercast
2:00 PM38.0 °F35.0 °F83 %30.23 in6.0 miEast (80°)4.5 mphPartly Cloudy
2:00 PM39.2 °F33.8 °F81 %30.15 in6.2 miEast (80°)4.5 mphOvercast
3:00 PM39.2 °F33.8 °F81 %30.15 in6.2 miEast (90°)4.5 mphOvercast
4:00 PM39.2 °F33.8 °F81 %30.15 in6.2 miEast (80°)4.5 mphOvercast
5:00 PM40.0 °F34.0 °F70 %30.20 in6.0 miNE (50°)4.5 mphRainLight Rain
5:00 PM39.2 °F33.8 °F81 %30.15 in6.2 miNE (50°)4.5 mphRainLight Rain
6:00 PM41.0 °F33.8 °F76 %30.15 in5.6 miEast (100°)4.5 mphOvercast
7:00 PM41.0 °F33.8 °F76 %30.15 in6.2 miEast (80°)4.5 mphOvercast
8:00 PM39.2 °F33.8 °F81 %30.15 in6.2 miEast (80°)6.7 mphOvercast
8:00 PM40.0 °F32.0 °F65 %30.20 in6.0 miENE (70°)6.7 mphPartly Cloudy
9:00 PM39.2 °F33.8 °F81 %30.15 in6.2 miESE (110°)8.9 mphOvercast
10:00 PM39.2 °F33.8 °F81 %30.12 in6.2 miESE (120°)8.9 mphOvercast
11:00 PM40.0 °F32.0 °F65 %30.17 in6.0 miEast (90°)6.7 mphPartly Cloudy
11:00 PM39.2 °F33.8 °F81 %30.12 in6.2 miEast (80°)6.7 mphOvercast
Hourly data recorded from UTAA, located miles away from Ashgabat, Turkmenistan




STORIES FROM OUR PARTNERS